Estación de San Rafael
Ultimos registro cada 15 minutos 47
| N° | Estación | Fecha / Hora | Temperatura | Humedad | Lluvia | Velocidad | Dirección | Radiación | Presion |
| 47 | San Rafael | 04-09-2026 11:30 | 9,6 | 81,1 | 0 | 1,5 | 154 | 71,9 | 1005,5 |
| 46 | San Rafael | 04-09-2026 11:15 | 9,3 | 83,7 | 0 | 1,5 | 131 | 114,4 | 1005,8 |
| 45 | San Rafael | 04-09-2026 11:00 | 8,6 | 83,7 | 0 | 1,5 | 146 | 181,9 | 1006 |
| 44 | San Rafael | 04-09-2026 10:45 | 8 | 87,7 | 0 | 1,5 | 154 | 238,1 | 1006,2 |
| 43 | San Rafael | 04-09-2026 10:30 | 6,8 | 89,2 | 0 | 1,5 | 156 | 338,1 | 1006,1 |
| 42 | San Rafael | 04-09-2026 10:15 | 6,2 | 90,7 | 0 | 2 | 164 | 320,6 | 1006,1 |
| 41 | San Rafael | 04-09-2026 10:00 | 5,4 | 92,8 | 0 | 1,5 | 174 | 309,4 | 1006,5 |
| 40 | San Rafael | 04-09-2026 09:45 | 4,9 | 93,4 | 0 | 1,5 | 188 | 176,9 | 1006,4 |
| 39 | San Rafael | 04-09-2026 09:30 | 4,8 | 93,7 | 0 | 2 | 185 | 141,9 | 1006,5 |
| 38 | San Rafael | 04-09-2026 09:15 | 4,8 | 94,2 | 0 | 2 | 185 | 114,4 | 1006,6 |
| 37 | San Rafael | 04-09-2026 09:00 | 4,8 | 94,3 | 0 | 1 | 166 | 88,1 | 1006,5 |
| 36 | San Rafael | 04-09-2026 08:45 | 4,6 | 94,1 | 0 | 1,5 | 166 | 66,9 | 1006,6 |
| 35 | San Rafael | 04-09-2026 08:30 | 4,4 | 94,1 | 0 | 1,5 | 163 | 56,9 | 1006,5 |
| 34 | San Rafael | 04-09-2026 08:15 | 4,5 | 94,1 | 0 | 2,5 | 171 | 44,4 | 1006,5 |
| 33 | San Rafael | 04-09-2026 08:00 | 4,5 | 93,7 | 0 | 2 | 170 | 41,9 | 1006,4 |
| 32 | San Rafael | 04-09-2026 07:45 | 4,5 | 93,5 | 0 | 1,5 | 173 | 30,6 | 1006,3 |
| 31 | San Rafael | 04-09-2026 07:30 | 4,5 | 93,4 | 0 | 1,5 | 178 | 18,1 | 1006,3 |
| 30 | San Rafael | 04-09-2026 07:15 | 4,5 | 93,1 | 0 | 1,5 | 180 | 8,1 | 1006,1 |
| 29 | San Rafael | 04-09-2026 07:00 | 4,6 | 93 | 0 | 1 | 175 | 0,6 | 1006,1 |
| 28 | San Rafael | 04-09-2026 06:45 | 4,6 | 92,7 | 0 | 1,5 | 177 | 0,6 | 1006,1 |
| 27 | San Rafael | 04-09-2026 06:30 | 4,6 | 92,9 | 0 | 1 | 184 | 0,6 | 1006 |
| 26 | San Rafael | 04-09-2026 06:15 | 4,6 | 92,6 | 0 | 1,5 | 184 | 0,6 | 1006 |
| 25 | San Rafael | 04-09-2026 06:00 | 4,5 | 92,7 | 0 | 1 | 184 | 0,6 | 1005,9 |
| 24 | San Rafael | 04-09-2026 05:45 | 4,3 | 92,7 | 0 | 0,5 | 181 | 0,6 | 1005,9 |
| 23 | San Rafael | 04-09-2026 05:30 | 4 | 92,4 | 0 | 0,5 | 177 | 0,6 | 1005,7 |
| 22 | San Rafael | 04-09-2026 05:15 | 4,4 | 91,7 | 0 | 0,5 | 178 | 0,6 | 1005,7 |
| 21 | San Rafael | 04-09-2026 05:00 | 4,6 | 90,9 | 0 | 1 | 178 | 0,6 | 1005,8 |
| 20 | San Rafael | 04-09-2026 04:45 | 4,9 | 90,5 | 0 | 1 | 185 | 0,6 | 1005,7 |
| 19 | San Rafael | 04-09-2026 04:30 | 4,9 | 90,3 | 0 | 0,5 | 183 | 0,6 | 1005,7 |
| 18 | San Rafael | 04-09-2026 04:15 | 5,2 | 89,9 | 0 | 0,5 | 184 | 0,6 | 1005,7 |
| 17 | San Rafael | 04-09-2026 04:00 | 5,1 | 89,7 | 0 | 0 | 170 | 0,6 | 1005,5 |
| 16 | San Rafael | 04-09-2026 03:45 | 5,5 | 88,8 | 0 | 0,5 | 178 | 0,6 | 1005,6 |
| 15 | San Rafael | 04-09-2026 03:30 | 5,9 | 88,3 | 0 | 1 | 181 | 0,6 | 1005,6 |
| 14 | San Rafael | 04-09-2026 03:15 | 6,1 | 88,2 | 0 | 1 | 178 | 0,6 | 1005,7 |
| 13 | San Rafael | 04-09-2026 03:00 | 6,3 | 88,4 | 0 | 0,5 | 184 | 0,6 | 1005,8 |
| 12 | San Rafael | 04-09-2026 02:45 | 6,3 | 88,2 | 0 | 0,5 | 183 | 0,6 | 1005,7 |
| 11 | San Rafael | 04-09-2026 02:30 | 6,5 | 88,6 | 0 | 0 | 178 | 0,6 | 1005,8 |
| 10 | San Rafael | 04-09-2026 02:15 | 6,7 | 88,4 | 0 | 0 | 225 | 0,6 | 1005,9 |
| 9 | San Rafael | 04-09-2026 02:00 | 7 | 87,6 | 0 | 0,5 | 190 | 0,6 | 1005,8 |
| 8 | San Rafael | 04-09-2026 01:45 | 7,2 | 87,7 | 0 | 0,5 | 184 | 0,6 | 1005,9 |
| 7 | San Rafael | 04-09-2026 01:30 | 7,2 | 87,4 | 0 | 0,5 | 190 | 0,6 | 1005,9 |
| 6 | San Rafael | 04-09-2026 01:15 | 7,2 | 87,4 | 0 | 0 | 188 | 0,6 | 1005,9 |
| 5 | San Rafael | 04-09-2026 01:00 | 7,6 | 86,6 | 0 | 0,5 | 185 | 0,6 | 1006,1 |
| 4 | San Rafael | 04-09-2026 00:45 | 7,6 | 86,9 | 0 | 0 | 190 | 0,6 | 1006,1 |
| 3 | San Rafael | 04-09-2026 00:30 | 7,6 | 86,9 | 0 | 0 | 187 | 0,6 | 1006 |
| 2 | San Rafael | 04-09-2026 00:15 | 7,8 | 86,6 | 0 | 0 | 181 | 0,6 | 1006,1 |
| 1 | San Rafael | 04-09-2026 00:00 | 7,6 | 86 | 0 | 0 | 180 | 0,6 | 1006,1 |